Satellite: ASTRA 1B
Catalog number: 21139
Epoch time:      103013.00000000
Element set:     157 
Inclination:        0.0122 deg
RA of node:       319.8851 deg
Eccentricity:    0.0002995
Arg of perigee:    65.1991 deg
Mean anomaly:     106.1713 deg
Mean motion:    1.00273184 rev/day
Decay rate:    1.3899E-006 rev/day^2
Epoch rev:            3182
Checksum:              237

Satellite: METEOSAT 5 (MO
Catalog number: 21140
Epoch time:      103013.79937034
Element set:     674 
Inclination:        5.5436 deg
RA of node:        70.1592 deg
Eccentricity:    0.0006787
Arg of perigee:   127.4334 deg
Mean anomaly:     266.1645 deg
Mean motion:    1.00269198 rev/day
Decay rate:    3.3000E-007 rev/day^2
Epoch rev:            4569
Checksum:              294

Satellite: NOAA 12
Catalog number: 21263
Epoch time:      103017.95855913
Element set:     934 
Inclination:       98.6227 deg
RA of node:         8.1281 deg
Eccentricity:    0.0013493
Arg of perigee:   111.3318 deg
Mean anomaly:     248.9302 deg
Mean motion:   14.25058167 rev/day
Decay rate:    4.8199E-006 rev/day^2
Epoch rev:           60671
Checksum:              313

Satellite: OSCAR 22 (UoSA
Catalog number: 21575
Epoch time:      103018.15141504
Element set:     703 
Inclination:       98.1368 deg
RA of node:        11.8641 deg
Eccentricity:    0.0006458
Arg of perigee:   226.0982 deg
Mean anomaly:     133.9674 deg
Mean motion:   14.39131307 rev/day
Decay rate:    5.0799E-006 rev/day^2
Epoch rev:           60376
Checksum:              312

Satellite: METEOR 3-5
Catalog number: 21655
Epoch time:      103018.22201542
Element set:     492 
Inclination:       82.5559 deg
RA of node:        61.0167 deg
Eccentricity:    0.0012467
Arg of perigee:   279.0573 deg
Mean anomaly:      80.9139 deg
Mean motion:   13.16978634 rev/day
Decay rate:    5.1000E-007 rev/day^2
Epoch rev:           54935
Checksum:              306

Satellite: UARS
Catalog number: 21701
Epoch time:      103017.70004368
Element set:     802 
Inclination:       56.9787 deg
RA of node:       161.0317 deg
Eccentricity:    0.0005935
Arg of perigee:   114.5371 deg
Mean anomaly:     245.6275 deg
Mean motion:   15.02788928 rev/day
Decay rate:    1.4510E-005 rev/day^2
Epoch rev:           62092
Checksum:              291

Satellite: EUTELSAT 2-F3
Catalog number: 21803
Epoch time:      103017.04828705
Element set:     509 
Inclination:        2.5176 deg
RA of node:        89.5149 deg
Eccentricity:    0.0002865
Arg of perigee:   229.0832 deg
Mean anomaly:     196.3458 deg
Mean motion:    1.00277902 rev/day
Decay rate:    1.4299E-006 rev/day^2
Epoch rev:            3667
Checksum:              309

Satellite: INMARSAT 2-F3
Catalog number: 21814
Epoch time:      103017.47629919
Element set:     601 
Inclination:        1.6809 deg
RA of node:        56.9039 deg
Eccentricity:    0.0002425
Arg of perigee:   249.1327 deg
Mean anomaly:     199.8717 deg
Mean motion:    1.00274344 rev/day
Decay rate:    1.2499E-006 rev/day^2
Epoch rev:            4057
Checksum:              307

Satellite: INMARSAT 2-F4
Catalog number: 21940
Epoch time:      103011.73058354
Element set:     563 
Inclination:        2.3763 deg
RA of node:        17.8930 deg
Eccentricity:    0.0001952
Arg of perigee:   236.1416 deg
Mean anomaly:     228.8141 deg
Mean motion:    1.00271383 rev/day
Decay rate:   -3.3799E-006 rev/day^2
Epoch rev:            3930
Checksum:              279

Satellite: EUTELSAT 2-F4
Catalog number: 22028
Epoch time:      103016.26524307
Element set:     317 
Inclination:        1.6368 deg
RA of node:        93.0537 deg
Eccentricity:    0.0005956
Arg of perigee:   210.0088 deg
Mean anomaly:     255.3866 deg
Mean motion:    1.00272365 rev/day
Decay rate:   -8.2999E-007 rev/day^2
Epoch rev:            3144
Checksum:              294

Satellite: OSCAR 23 (KITS
Catalog number: 22077
Epoch time:      103015.90463546
Element set:     185 
Inclination:       66.0842 deg
RA of node:       196.2267 deg
Eccentricity:    0.0014873
Arg of perigee:   281.9527 deg
Mean anomaly:      77.9826 deg
Mean motion:   12.86407673 rev/day
Decay rate:   -3.7000E-007 rev/day^2
Epoch rev:           48997
Checksum:              346

Satellite: ASTRA 1C
Catalog number: 22653
Epoch time:      103013.00000000
Element set:     783 
Inclination:        0.0122 deg
RA of node:       319.8851 deg
Eccentricity:    0.0002995
Arg of perigee:    65.1991 deg
Mean anomaly:     106.1253 deg
Mean motion:    1.00273184 rev/day
Decay rate:    1.3899E-006 rev/day^2
Epoch rev:            3052
Checksum:              239

Satellite: METEOR 2-21
Catalog number: 22782
Epoch time:      103017.49709434
Element set:     494 
Inclination:       82.5479 deg
RA of node:       240.3327 deg
Eccentricity:    0.0023706
Arg of perigee:    76.9364 deg
Mean anomaly:     283.4440 deg
Mean motion:   13.83529455 rev/day
Decay rate:    9.4000E-007 rev/day^2
Epoch rev:           47365
Checksum:              327

Satellite: KITSAT B
Catalog number: 22825
Epoch time:      103017.54227315
Element set:     464 
Inclination:       98.2780 deg
RA of node:        48.8679 deg
Eccentricity:    0.0008761
Arg of perigee:     1.0918 deg
Mean anomaly:     359.0289 deg
Mean motion:   14.28931039 rev/day
Decay rate:    2.2799E-006 rev/day^2
Epoch rev:           48530
Checksum:              330

Satellite: POSAT 1
Catalog number: 22826
Epoch time:      103016.59736716
Element set:     296 
Inclination:       98.2785 deg
RA of node:        49.0703 deg
Eccentricity:    0.0009467
Arg of perigee:     1.8937 deg
Mean anomaly:     358.2279 deg
Mean motion:   14.29152235 rev/day
Decay rate:    2.2399E-006 rev/day^2
Epoch rev:           48521
Checksum:              338

Satellite: ITAMSAT
Catalog number: 22828
Epoch time:      103018.12547163
Element set:     404 
Inclination:       98.2748 deg
RA of node:        50.7862 deg
Eccentricity:    0.0010209
Arg of perigee:   336.7339 deg
Mean anomaly:      23.3379 deg
Mean motion:   14.29497066 rev/day
Decay rate:    2.1099E-006 rev/day^2
Epoch rev:           45363
Checksum:              314

Satellite: EYESAT A
Catalog number: 22829
Epoch time:      103017.16056328
Element set:     427 
Inclination:       98.2769 deg
RA of node:        50.4583 deg
Eccentricity:    0.0009999
Arg of perigee:   340.2605 deg
Mean anomaly:      19.8189 deg
Mean motion:   14.29750720 rev/day
Decay rate:    3.4100E-006 rev/day^2
Epoch rev:           48542
Checksum:              319

Satellite: METEOSAT 6
Catalog number: 22912
Epoch time:      103017.04271413
Element set:     639 
Inclination:        2.6012 deg
RA of node:        82.5770 deg
Eccentricity:    0.0000827
Arg of perigee:   254.3444 deg
Mean anomaly:     163.7808 deg
Mean motion:    1.00272768 rev/day
Decay rate:    7.5000E-007 rev/day^2
Epoch rev:            3197
Checksum:              387

Satellite: GOES 8
Catalog number: 23051
Epoch time:      103017.30501791
Element set:     564 
Inclination:        0.2214 deg
RA of node:       106.0513 deg
Eccentricity:    0.0002352
Arg of perigee:   195.8509 deg
Mean anomaly:     208.6725 deg
Mean motion:    1.00258713 rev/day
Decay rate:   -2.3099E-006 rev/day^2
Epoch rev:            3948
Checksum:              265

Satellite: ASTRA 1D
Catalog number: 23331
Epoch time:      103017.04980904
Element set:     803 
Inclination:        0.0478 deg
RA of node:       216.7253 deg
Eccentricity:    0.0002038
Arg of perigee:   134.0468 deg
Mean anomaly:     167.3539 deg
Mean motion:    1.00272577 rev/day
Decay rate:    1.5499E-006 rev/day^2
Epoch rev:            3054
Checksum:              273

Satellite: RADIO ROSTO
Catalog number: 23439
Epoch time:      103018.16267362
Element set:     676 
Inclination:       64.8160 deg
RA of node:        92.2698 deg
Eccentricity:    0.0147649
Arg of perigee:   121.3252 deg
Mean anomaly:     240.2220 deg
Mean motion:   11.27547996 rev/day
Decay rate:   -4.1999E-007 rev/day^2
Epoch rev:           33205
Checksum:              316

Satellite: NOAA 14
Catalog number: 23455
Epoch time:      103017.96998835
Element set:     489 
Inclination:       99.1878 deg
RA of node:        35.7059 deg
Eccentricity:    0.0008883
Arg of perigee:   321.9430 deg
Mean anomaly:      38.1112 deg
Mean motion:   14.13284474 rev/day
Decay rate:    1.8299E-006 rev/day^2
Epoch rev:           41501
Checksum:              449

Satellite: HIMAWARI 5 (GM
Catalog number: 23522
Epoch time:      103016.75351536
Element set:     57 
Inclination:        1.6782 deg
RA of node:        83.1377 deg
Eccentricity:    0.0000743
Arg of perigee:    96.9895 deg
Mean anomaly:     347.1114 deg
Mean motion:    1.00268977 rev/day
Decay rate:   -2.6499E-006 rev/day^2
Epoch rev:            2856
Checksum:              323

Satellite: HOT BIRD 1
Catalog number: 23537
Epoch time:      103013.80550721
Element set:     533 
Inclination:        0.0070 deg
RA of node:       236.2796 deg
Eccentricity:    0.0008090
Arg of perigee:    86.9786 deg
Mean anomaly:      92.5958 deg
Mean motion:    1.00275871 rev/day
Decay rate:    1.0700E-006 rev/day^2
Epoch rev:            2861
Checksum:              279

Satellite: GOES 9
Catalog number: 23581
Epoch time:      103017.41178810
Element set:     477 
Inclination:        0.3599 deg
RA of node:       278.0713 deg
Eccentricity:    0.0007570
Arg of perigee:   223.9498 deg
Mean anomaly:     351.8607 deg
Mean motion:    1.00034711 rev/day
Decay rate:    1.0600E-006 rev/day^2
Epoch rev:            2804
Checksum:              281

